SQP0011 LUKK-LFOB

Flight info

Callsign SQP0011
Flight time N/A
Altitude 32000
Route UNIRA DCT BAMUD DCT ABULI DCT ODNEM DCT RUDAP DCT COSJE DCT RIDSU DCT DONAB DCT SOBRA DCT ULKIG DCT RUDOT DCT BITBU DCT ASMOX DCT NISIV DCT IDOSA DCT TOLVU DCT VEDUS
Aircraft B738/M-W/L

Departure

Time 2026-05-05 16:03
Airport Chişinău International Airport (LUKK)

Arrival

Time N/A
Airport Beauvais-Tillé airport (LFOB)
Time Latitude Longitude Altitude Speed Heading
2026-05-05 15:23 46.93233 28.93726 328 ft 0 kts 97°
2026-05-05 15:51 46.93232 28.93738 328 ft 4 kts 97°
2026-05-05 15:51 46.93213 28.93777 327 ft 5 kts 158°
2026-05-05 15:51 46.93175 28.93775 326 ft 6 kts 185°
2026-05-05 15:51 46.93138 28.93744 327 ft 7 kts 240°
2026-05-05 15:52 46.93133 28.93675 329 ft 7 kts 271°
2026-05-05 15:52 46.93138 28.93606 330 ft 7 kts 276°
2026-05-05 15:52 46.93144 28.93533 334 ft 8 kts 276°
2026-05-05 15:52 46.93151 28.93456 336 ft 8 kts 277°
2026-05-05 15:53 46.93158 28.93366 338 ft 10 kts 277°
2026-05-05 15:53 46.93167 28.93265 337 ft 10 kts 277°
2026-05-05 15:53 46.93175 28.93166 342 ft 10 kts 277°
2026-05-05 15:53 46.93186 28.93027 352 ft 17 kts 276°
2026-05-05 15:54 46.93200 28.92859 352 ft 16 kts 277°
2026-05-05 15:54 46.93213 28.92697 355 ft 16 kts 277°
2026-05-05 15:54 46.93225 28.92542 355 ft 15 kts 277°
2026-05-05 15:54 46.93237 28.92394 359 ft 14 kts 276°
2026-05-05 15:55 46.93248 28.92251 362 ft 14 kts 277°
2026-05-05 15:55 46.93256 28.92115 365 ft 13 kts 259°
2026-05-05 15:55 46.93202 28.92026 370 ft 11 kts 199°
2026-05-05 15:55 46.93198 28.92023 371 ft 0 kts 198°
2026-05-05 15:56 46.93185 28.92019 371 ft 6 kts 194°
2026-05-05 15:56 46.93118 28.91991 369 ft 11 kts 191°
2026-05-05 15:56 46.93065 28.91990 370 ft 12 kts 177°
2026-05-05 15:56 46.92984 28.91991 374 ft 11 kts 180°
2026-05-05 15:57 46.92905 28.91994 378 ft 11 kts 179°
2026-05-05 15:57 46.92893 28.91995 379 ft 0 kts 179°
2026-05-05 15:59 46.92891 28.91995 379 ft 3 kts 179°
2026-05-05 15:59 46.92847 28.91995 381 ft 10 kts 179°
2026-05-05 15:59 46.92772 28.91967 384 ft 12 kts 227°
2026-05-05 16:00 46.92753 28.91855 386 ft 12 kts 267°
2026-05-05 16:00 46.92749 28.91702 389 ft 19 kts 268°
2026-05-05 16:00 46.92744 28.91491 396 ft 21 kts 268°
2026-05-05 16:00 46.92740 28.91270 400 ft 22 kts 269°
2026-05-05 16:01 46.92737 28.91055 405 ft 22 kts 268°
2026-05-05 16:01 46.92721 28.90846 406 ft 10 kts 282°
2026-05-05 16:01 46.92744 28.90770 406 ft 6 kts 264°
2026-05-05 16:01 46.92733 28.90747 404 ft 0 kts 201°
2026-05-05 16:02 46.92730 28.90751 404 ft 1 kts 151°
2026-05-05 16:02 46.92730 28.90762 403 ft 2 kts 96°
2026-05-05 16:02 46.92732 28.90801 405 ft 9 kts 87°
2026-05-05 16:02 46.92740 28.91232 400 ft 84 kts 88°
2026-05-05 16:03 46.92755 28.92472 373 ft 158 kts 93°
2026-05-05 16:03 46.92776 28.94308 688 ft 198 kts 90°
2026-05-05 16:03 46.92822 28.96421 1352 ft 209 kts 89°
2026-05-05 16:03 46.92871 28.98455 2581 ft 197 kts 90°
2026-05-05 16:04 46.92918 29.00549 3083 ft 219 kts 89°
2026-05-05 16:04 46.93049 29.02880 3322 ft 240 kts 73°
2026-05-05 16:04 46.94023 29.04859 3801 ft 248 kts 34°
2026-05-05 16:04 46.95654 29.05661 4296 ft 256 kts
2026-05-05 16:05 46.97431 29.05163 4773 ft 268 kts 333°
2026-05-05 16:05 46.98869 29.03459 5549 ft 269 kts 308°
2026-05-05 16:05 46.99825 29.01098 6329 ft 273 kts 298°
2026-05-05 16:05 47.00637 28.98534 7026 ft 279 kts 297°
2026-05-05 16:06 47.01430 28.95931 7796 ft 281 kts 297°
2026-05-05 16:06 47.02194 28.93294 8558 ft 284 kts 293°
2026-05-05 16:06 47.02826 28.90533 9296 ft 287 kts 290°
2026-05-05 16:06 47.03416 28.87712 10024 ft 291 kts 290°
2026-05-05 16:07 47.04011 28.84826 10440 ft 305 kts 290°
2026-05-05 16:07 47.04654 28.81735 10601 ft 327 kts 290°
2026-05-05 16:07 47.05344 28.78439 10763 ft 348 kts 290°
2026-05-05 16:07 47.06086 28.74904 10956 ft 367 kts 290°
2026-05-05 16:08 47.06851 28.71275 11404 ft 377 kts 290°
2026-05-05 16:08 47.07627 28.67586 12005 ft 380 kts 290°
2026-05-05 16:08 47.08301 28.64391 12580 ft 383 kts 290°
2026-05-05 16:08 47.09093 28.60641 13200 ft 387 kts 290°
2026-05-05 16:09 47.09896 28.56837 13783 ft 391 kts 290°
2026-05-05 16:09 47.10705 28.53009 14309 ft 396 kts 290°
2026-05-05 16:09 47.11524 28.49131 14880 ft 398 kts 290°
2026-05-05 16:09 47.12345 28.45234 15460 ft 401 kts 290°
2026-05-05 16:10 47.13170 28.41311 16006 ft 404 kts 290°
2026-05-05 16:10 47.14003 28.37343 16546 ft 408 kts 290°
2026-05-05 16:10 47.14841 28.33344 17079 ft 411 kts 290°
2026-05-05 16:10 47.15683 28.29320 17609 ft 415 kts 290°
2026-05-05 16:11 47.16533 28.25250 18133 ft 418 kts 290°
2026-05-05 16:11 47.19106 28.12871 19557 ft 426 kts 289°
2026-05-05 16:12 47.19971 28.08694 20008 ft 428 kts 289°
2026-05-05 16:12 47.21710 28.00266 20915 ft 433 kts 289°
2026-05-05 16:13 47.24344 27.87435 22181 ft 441 kts 289°
2026-05-05 16:13 47.25230 27.83103 22585 ft 443 kts 289°
2026-05-05 16:13 47.26119 27.78744 22991 ft 445 kts 289°
2026-05-05 16:14 47.27904 27.69964 23730 ft 450 kts 289°
2026-05-05 16:14 47.29700 27.61090 24388 ft 454 kts 288°
2026-05-05 16:15 47.31501 27.52150 25030 ft 457 kts 288°
2026-05-05 16:15 47.33311 27.43126 25642 ft 460 kts 288°
2026-05-05 16:16 47.35124 27.34046 26240 ft 463 kts 288°
2026-05-05 16:16 47.36942 27.24894 26796 ft 467 kts 288°
2026-05-05 16:17 47.38754 27.15733 27356 ft 469 kts 288°
2026-05-05 16:17 47.39677 27.11050 27642 ft 470 kts 288°
2026-05-05 16:18 47.41499 27.01768 28506 ft 466 kts 288°
2026-05-05 16:18 47.42399 26.97168 28942 ft 463 kts 288°
2026-05-05 16:18 47.44215 26.87854 29669 ft 462 kts 288°
2026-05-05 16:19 47.45104 26.83280 30045 ft 461 kts 288°
2026-05-05 16:19 47.45985 26.78733 30378 ft 459 kts 288°
2026-05-05 16:19 47.47734 26.69674 30946 ft 458 kts 288°
2026-05-05 16:20 47.49473 26.60625 31537 ft 456 kts 288°
2026-05-05 16:20 47.50919 26.53075 31957 ft 456 kts 288°
2026-05-05 16:22 47.55492 26.28974 31943 ft 452 kts 287°
2026-05-05 16:23 47.58597 26.12431 31941 ft 450 kts 287°
2026-05-05 16:23 47.61101 25.98986 31941 ft 450 kts 287°
2026-05-05 16:24 47.62767 25.89988 31943 ft 451 kts 287°
2026-05-05 16:25 47.65247 25.76512 31939 ft 453 kts 287°
2026-05-05 16:25 47.67727 25.62929 31948 ft 453 kts 287°
2026-05-05 16:26 47.71007 25.44813 31956 ft 455 kts 287°
2026-05-05 16:27 47.72640 25.35728 31962 ft 455 kts 287°
2026-05-05 16:27 47.74276 25.26573 31963 ft 456 kts 287°
2026-05-05 16:28 47.75896 25.17470 31968 ft 455 kts 287°
2026-05-05 16:28 47.77507 25.08368 31970 ft 455 kts 287°
2026-05-05 16:29 47.79109 24.99267 31971 ft 455 kts 287°
2026-05-05 16:29 47.80704 24.90159 31984 ft 455 kts 287°
2026-05-05 16:30 47.82293 24.81048 31976 ft 455 kts 286°
2026-05-05 16:30 47.83870 24.71952 31976 ft 454 kts 286°
2026-05-05 16:31 47.85438 24.62859 31982 ft 453 kts 286°
2026-05-05 16:31 47.86996 24.53781 31981 ft 452 kts 286°
2026-05-05 16:32 47.88544 24.44715 31964 ft 452 kts 286°
2026-05-05 16:32 47.90084 24.35648 31970 ft 451 kts 286°
2026-05-05 16:33 47.91616 24.26581 31959 ft 452 kts 286°
2026-05-05 16:33 47.93140 24.17488 31962 ft 452 kts 286°
2026-05-05 16:34 47.94661 24.08394 31962 ft 452 kts 286°
2026-05-05 16:34 47.96185 23.99238 31966 ft 452 kts 286°
2026-05-05 16:35 47.97695 23.90116 31957 ft 452 kts 285°
2026-05-05 16:35 47.99194 23.81005 31954 ft 453 kts 284°
2026-05-05 16:36 48.00643 23.71851 31943 ft 452 kts 285°
2026-05-05 16:36 48.02115 23.62731 31951 ft 452 kts 286°
2026-05-05 16:37 48.03624 23.53622 31944 ft 451 kts 285°
2026-05-05 16:37 48.05122 23.44448 31945 ft 451 kts 285°
2026-05-05 16:38 48.06586 23.35337 31940 ft 451 kts 285°
2026-05-05 16:38 48.08036 23.26224 31938 ft 451 kts 285°
2026-05-05 16:39 48.09481 23.17094 31939 ft 450 kts 285°
2026-05-05 16:39 48.10915 23.07977 31929 ft 450 kts 285°
2026-05-05 16:40 48.12339 22.98879 31930 ft 449 kts 285°
2026-05-05 16:40 48.13758 22.89766 31924 ft 449 kts 285°
2026-05-05 16:41 48.15168 22.80659 31921 ft 449 kts 285°
2026-05-05 16:41 48.16569 22.71558 31927 ft 448 kts 285°
2026-05-05 16:42 48.17963 22.62451 31921 ft 448 kts 284°
2026-05-05 16:42 48.19359 22.53277 31923 ft 448 kts 284°
2026-05-05 16:43 48.20749 22.44088 31921 ft 448 kts 284°
2026-05-05 16:43 48.22117 22.34990 31915 ft 448 kts 284°
2026-05-05 16:44 48.23480 22.25877 31919 ft 448 kts 284°
2026-05-05 16:44 48.24838 22.16745 31912 ft 449 kts 284°
2026-05-05 16:45 48.26189 22.07606 31916 ft 449 kts 284°
2026-05-05 16:45 48.27533 21.98457 31910 ft 449 kts 285°
2026-05-05 16:46 48.28750 21.89156 31918 ft 449 kts 274°
2026-05-05 16:46 48.29862 21.80081 31939 ft 445 kts 289°
2026-05-05 16:47 48.31317 21.72529 31908 ft 447 kts 286°
2026-05-05 16:47 48.31703 21.67888 31947 ft 448 kts 272°
2026-05-05 16:47 48.31920 21.63223 31681 ft 451 kts 283°
2026-05-05 16:48 48.32735 21.58722 31886 ft 444 kts 290°
2026-05-05 16:48 48.33728 21.54315 31896 ft 445 kts 289°
2026-05-05 16:48 48.35283 21.45293 31903 ft 448 kts 284°
2026-05-05 16:49 48.36175 21.36029 31890 ft 451 kts 271°
2026-05-05 16:49 48.36576 21.31402 31899 ft 446 kts 288°
2026-05-05 16:49 48.37437 21.26911 31866 ft 447 kts 288°
2026-05-05 16:50 48.39140 21.17915 31906 ft 449 kts 284°
2026-05-05 16:50 48.40405 21.08698 31903 ft 450 kts 282°
2026-05-05 16:51 48.41591 20.99513 31913 ft 451 kts 283°
2026-05-05 16:51 48.42836 20.90192 31906 ft 451 kts 283°
2026-05-05 16:52 48.44091 20.80947 31914 ft 450 kts 283°
2026-05-05 16:52 48.45331 20.71781 31911 ft 450 kts 283°
2026-05-05 16:53 48.46569 20.62554 31917 ft 449 kts 282°
2026-05-05 16:53 48.47797 20.53350 31918 ft 448 kts 282°
2026-05-05 16:54 48.49011 20.44090 31929 ft 447 kts 282°
2026-05-05 16:54 48.50163 20.34892 31931 ft 446 kts 282°
2026-05-05 16:55 48.51294 20.25757 31925 ft 445 kts 282°
2026-05-05 16:55 48.52435 20.16512 31927 ft 445 kts 281°
2026-05-05 16:56 48.53561 20.07351 31939 ft 444 kts 281°
2026-05-05 16:56 48.54680 19.98196 31936 ft 444 kts 281°
2026-05-05 16:57 48.55792 19.89033 31933 ft 444 kts 281°
2026-05-05 16:57 48.56896 19.79869 31939 ft 444 kts 281°
2026-05-05 16:58 48.57995 19.70688 31929 ft 444 kts 281°
2026-05-05 16:58 48.59089 19.61478 31929 ft 443 kts 281°
2026-05-05 16:59 48.60194 19.52113 31926 ft 443 kts 281°
2026-05-05 16:59 48.61264 19.42977 31919 ft 443 kts 281°
2026-05-05 17:00 48.62340 19.33717 31918 ft 443 kts 280°
2026-05-05 17:00 48.63399 19.24544 31910 ft 443 kts 280°
2026-05-05 17:01 48.64451 19.15358 31909 ft 443 kts 280°
2026-05-05 17:01 48.65495 19.06176 31894 ft 443 kts 280°
2026-05-05 17:02 48.66490 18.97362 31893 ft 443 kts 280°
2026-05-05 17:02 48.67575 18.87677 31887 ft 443 kts 280°
2026-05-05 17:03 48.68606 18.78410 31879 ft 443 kts 280°
2026-05-05 17:03 48.69463 18.70645 31876 ft 442 kts 280°
2026-05-05 17:04 48.70475 18.61416 31875 ft 442 kts 279°
2026-05-05 17:04 48.71482 18.52163 31852 ft 442 kts 279°
2026-05-05 17:05 48.72481 18.42912 31847 ft 442 kts 279°
2026-05-05 17:05 48.73476 18.33614 31865 ft 441 kts 279°
2026-05-05 17:06 48.74451 18.24442 31847 ft 441 kts 279°
2026-05-05 17:06 48.75423 18.15217 31843 ft 440 kts 279°
2026-05-05 17:07 48.76382 18.06055 31834 ft 440 kts 279°
2026-05-05 17:07 48.77347 17.96750 31837 ft 440 kts 279°
2026-05-05 17:08 48.78296 17.87524 31830 ft 440 kts 279°
2026-05-05 17:08 48.79239 17.78292 31827 ft 440 kts 279°
2026-05-05 17:09 48.80165 17.69137 31825 ft 439 kts 279°
2026-05-05 17:09 48.81092 17.59910 31816 ft 439 kts 279°
2026-05-05 17:10 48.82002 17.50771 31805 ft 439 kts 279°
2026-05-05 17:10 48.82913 17.41543 31797 ft 439 kts 279°
2026-05-05 17:11 48.83830 17.32178 31782 ft 439 kts 279°
2026-05-05 17:11 48.84131 17.29081 31785 ft 439 kts 279°
2026-05-05 17:12 48.85609 17.13962 31777 ft 439 kts 279°
2026-05-05 17:12 48.86483 17.06300 31785 ft 439 kts 281°
2026-05-05 17:13 48.87572 16.97177 31775 ft 438 kts 281°
2026-05-05 17:13 48.88641 16.88073 31773 ft 438 kts 280°
2026-05-05 17:14 48.89686 16.78970 31767 ft 438 kts 280°
2026-05-05 17:14 48.90729 16.69771 31770 ft 437 kts 280°
2026-05-05 17:15 48.91752 16.60663 31766 ft 437 kts 279°
2026-05-05 17:15 48.92769 16.51553 31751 ft 437 kts 279°
2026-05-05 17:16 48.93776 16.42456 31744 ft 436 kts 279°
2026-05-05 17:16 48.94783 16.33302 31747 ft 436 kts 279°
2026-05-05 17:17 48.95776 16.24206 31751 ft 436 kts 279°
2026-05-05 17:17 48.96761 16.15110 31754 ft 435 kts 279°
2026-05-05 17:18 48.97738 16.06011 31748 ft 435 kts 279°
2026-05-05 17:18 48.98707 15.96925 31750 ft 435 kts 279°
2026-05-05 17:19 48.99669 15.87835 31739 ft 435 kts 278°
2026-05-05 17:19 49.00624 15.78742 31730 ft 435 kts 278°
2026-05-05 17:20 49.01573 15.69622 31722 ft 434 kts 278°
2026-05-05 17:20 49.02516 15.60500 31713 ft 434 kts 278°
2026-05-05 17:21 49.03447 15.51414 31714 ft 434 kts 278°
2026-05-05 17:22 49.04840 15.37683 31712 ft 435 kts 278°
2026-05-05 17:22 49.05750 15.28629 31717 ft 434 kts 278°
2026-05-05 17:23 49.06667 15.19420 31720 ft 435 kts 278°
2026-05-05 17:23 49.07568 15.10295 31721 ft 434 kts 278°
2026-05-05 17:24 49.07719 15.08765 31725 ft 434 kts 277°
2026-05-05 17:24 49.09383 14.91692 31721 ft 435 kts 277°
2026-05-05 17:25 49.10250 14.82688 31723 ft 435 kts 277°
2026-05-05 17:25 49.11120 14.73569 31727 ft 435 kts 277°
2026-05-05 17:26 49.11984 14.64449 31726 ft 435 kts 277°
2026-05-05 17:26 49.12842 14.55297 31726 ft 435 kts 277°
2026-05-05 17:27 49.13697 14.46102 31734 ft 435 kts 277°
2026-05-05 17:27 49.14412 14.38358 31730 ft 435 kts 276°
2026-05-05 17:28 49.15252 14.29172 31739 ft 435 kts 276°
2026-05-05 17:28 49.16089 14.19943 31735 ft 435 kts 276°
2026-05-05 17:29 49.16912 14.10778 31736 ft 436 kts 276°
2026-05-05 17:29 49.17735 14.01538 31742 ft 436 kts 276°
2026-05-05 17:30 49.18546 13.92337 31736 ft 437 kts 276°
2026-05-05 17:30 49.19349 13.83136 31742 ft 437 kts 276°
2026-05-05 17:31 49.20143 13.73964 31743 ft 438 kts 275°
2026-05-05 17:31 49.20939 13.64684 31740 ft 438 kts 275°
2026-05-05 17:32 49.21729 13.55378 31744 ft 439 kts 275°
2026-05-05 17:32 49.22517 13.45995 31748 ft 439 kts 275°
2026-05-05 17:33 49.23291 13.36708 31795 ft 441 kts 275°
2026-05-05 17:33 49.24076 13.27368 31745 ft 445 kts 276°
2026-05-05 17:34 49.25675 13.18178 31747 ft 449 kts 284°
2026-05-05 17:34 49.27557 13.08989 31733 ft 451 kts 284°
2026-05-05 17:35 49.29405 12.99852 31737 ft 452 kts 284°
2026-05-05 17:35 49.31232 12.90623 31743 ft 453 kts 283°
2026-05-05 17:36 49.33035 12.81396 31739 ft 453 kts 283°
2026-05-05 17:36 49.34840 12.72105 31743 ft 453 kts 283°
2026-05-05 17:37 49.36586 12.63073 31736 ft 453 kts 283°
2026-05-05 17:37 49.38280 12.54279 31745 ft 453 kts 283°
2026-05-05 17:38 49.40076 12.44904 31746 ft 454 kts 283°
2026-05-05 17:38 49.41873 12.35481 31746 ft 454 kts 283°
2026-05-05 17:39 49.43653 12.26104 31757 ft 454 kts 282°
2026-05-05 17:39 49.45413 12.16777 31777 ft 456 kts 282°
2026-05-05 17:40 49.47183 12.07353 31765 ft 460 kts 282°
2026-05-05 17:40 49.48956 11.97869 31774 ft 459 kts 282°
2026-05-05 17:41 49.50718 11.88398 31770 ft 460 kts 282°
2026-05-05 17:41 49.52495 11.78796 31781 ft 460 kts 282°
2026-05-05 17:42 49.53947 11.70911 31777 ft 460 kts 282°
2026-05-05 17:42 49.55718 11.61244 31781 ft 460 kts 282°
2026-05-05 17:43 49.57457 11.51707 31780 ft 459 kts 282°
2026-05-05 17:43 49.59172 11.42248 31795 ft 458 kts 282°
2026-05-05 17:44 49.60894 11.32704 31798 ft 458 kts 282°
2026-05-05 17:44 49.62593 11.23231 31799 ft 459 kts 282°
2026-05-05 17:45 49.64287 11.13743 31802 ft 459 kts 282°
2026-05-05 17:45 49.65975 11.04238 31802 ft 460 kts 282°
2026-05-05 17:46 49.67671 10.94627 31812 ft 461 kts 282°
2026-05-05 17:46 49.69251 10.85023 31810 ft 461 kts 280°
2026-05-05 17:47 49.70224 10.75308 31824 ft 457 kts 269°
2026-05-05 17:47 49.70407 10.65349 31814 ft 457 kts 262°
2026-05-05 17:48 49.70367 10.55513 31823 ft 460 kts 270°
2026-05-05 17:48 49.70755 10.45414 31814 ft 462 kts 269°
2026-05-05 17:49 49.71044 10.35433 31811 ft 463 kts 269°
2026-05-05 17:49 49.71297 10.25478 31818 ft 464 kts 269°
2026-05-05 17:50 49.71546 10.15302 31811 ft 464 kts 269°
2026-05-05 17:50 49.71742 10.07099 31816 ft 464 kts 269°
2026-05-05 17:51 49.71986 9.96708 31810 ft 464 kts 268°
2026-05-05 17:51 49.72212 9.86672 31819 ft 464 kts 268°
2026-05-05 17:52 49.72430 9.76637 31814 ft 464 kts 268°
2026-05-05 17:52 49.72638 9.66643 31818 ft 464 kts 268°
2026-05-05 17:53 49.72836 9.56685 31820 ft 465 kts 268°
2026-05-05 17:53 49.73028 9.46626 31814 ft 465 kts 268°
2026-05-05 17:54 49.73211 9.36562 31820 ft 465 kts 268°
2026-05-05 17:54 49.73386 9.26501 31823 ft 466 kts 268°
2026-05-05 17:55 49.73551 9.16482 31830 ft 466 kts 268°
2026-05-05 17:55 49.73708 9.06453 31830 ft 467 kts 268°
2026-05-05 17:56 49.73856 8.96420 31823 ft 467 kts 268°
2026-05-05 17:56 49.73994 8.86471 31818 ft 467 kts 268°
2026-05-05 17:57 49.74125 8.76417 31826 ft 467 kts 268°
2026-05-05 17:57 49.74208 8.66365 31826 ft 468 kts 268°
2026-05-05 17:58 49.74336 8.56306 31819 ft 468 kts 268°
2026-05-05 17:58 49.74460 8.46265 31822 ft 468 kts 268°
2026-05-05 17:59 49.74563 8.36232 31820 ft 468 kts 268°
2026-05-05 17:59 49.74651 8.26129 31824 ft 468 kts 268°
2026-05-05 18:00 49.74730 8.16055 31816 ft 469 kts 268°
2026-05-05 18:00 49.74800 8.05966 31822 ft 469 kts 268°
2026-05-05 18:01 49.74861 7.95873 31817 ft 470 kts 268°
2026-05-05 18:01 49.74914 7.85770 31821 ft 470 kts 268°
2026-05-05 18:02 49.74959 7.75647 31821 ft 470 kts 268°
2026-05-05 18:02 49.74994 7.65380 31816 ft 470 kts 268°
2026-05-05 18:03 49.75020 7.55420 31819 ft 471 kts 268°
2026-05-05 18:03 49.75038 7.45304 31824 ft 471 kts 267°
2026-05-05 18:04 49.75047 7.35113 31830 ft 470 kts 267°
2026-05-05 18:04 49.75047 7.25005 31826 ft 470 kts 267°
2026-05-05 18:05 49.75038 7.14892 31818 ft 470 kts 267°
2026-05-05 18:05 49.75020 7.04791 31818 ft 470 kts 267°
2026-05-05 18:06 49.74994 6.94697 31819 ft 469 kts 267°
2026-05-05 18:06 49.74956 6.84589 31786 ft 469 kts 263°
2026-05-05 18:07 49.74832 6.74529 31803 ft 469 kts 268°
2026-05-05 18:07 49.74830 6.64453 31796 ft 469 kts 268°
2026-05-05 18:08 49.74800 6.54374 31806 ft 469 kts 267°
2026-05-05 18:08 49.74735 6.44306 31808 ft 469 kts 267°
2026-05-05 18:09 49.74654 6.34214 31800 ft 469 kts 267°
2026-05-05 18:09 49.74565 6.24152 31800 ft 469 kts 267°
2026-05-05 18:10 49.74468 6.14062 31807 ft 469 kts 267°
2026-05-05 18:10 49.74363 6.03964 31810 ft 469 kts 267°
2026-05-05 18:11 49.74251 5.93872 31812 ft 469 kts 267°
2026-05-05 18:11 49.73536 5.83897 31698 ft 467 kts 253°
2026-05-05 18:11 49.72529 5.79105 31029 ft 470 kts 248°
2026-05-05 18:12 49.71387 5.74384 30373 ft 469 kts 247°
2026-05-05 18:12 49.70222 5.69667 29687 ft 470 kts 248°
2026-05-05 18:12 49.69078 5.64971 29109 ft 467 kts 248°
2026-05-05 18:12 49.67958 5.60278 28550 ft 462 kts 248°
2026-05-05 18:13 49.66876 5.55677 28032 ft 456 kts 248°
2026-05-05 18:13 49.65800 5.51071 27516 ft 450 kts 248°
2026-05-05 18:13 49.64741 5.46551 26993 ft 445 kts 248°
2026-05-05 18:13 49.63694 5.42096 26483 ft 440 kts 248°
2026-05-05 18:14 49.62735 5.37622 25967 ft 437 kts 254°
2026-05-05 18:14 49.62218 5.33051 25584 ft 431 kts 264°
2026-05-05 18:14 49.61995 5.28471 25119 ft 426 kts 265°
2026-05-05 18:14 49.61801 5.23912 24646 ft 423 kts 265°
2026-05-05 18:15 49.61607 5.19411 24170 ft 421 kts 265°
2026-05-05 18:15 49.61399 5.14916 23661 ft 419 kts 264°
2026-05-05 18:15 49.61180 5.10439 23142 ft 417 kts 264°
2026-05-05 18:15 49.60954 5.05998 22578 ft 414 kts 264°
2026-05-05 18:16 49.60726 5.01598 22097 ft 410 kts 264°
2026-05-05 18:16 49.60496 4.97225 21598 ft 408 kts 264°
2026-05-05 18:16 49.60265 4.92877 21103 ft 406 kts 264°
2026-05-05 18:16 49.60035 4.88558 20603 ft 403 kts 264°
2026-05-05 18:17 49.59806 4.84286 20140 ft 398 kts 264°
2026-05-05 18:17 49.59579 4.80065 19667 ft 394 kts 264°
2026-05-05 18:17 49.59424 4.75920 19229 ft 390 kts 267°
2026-05-05 18:17 49.59411 4.71717 18787 ft 386 kts 269°
2026-05-05 18:18 49.59450 4.67596 18330 ft 383 kts 270°
2026-05-05 18:18 49.59499 4.63523 17834 ft 380 kts 269°
2026-05-05 18:18 49.59540 4.59516 17332 ft 377 kts 269°
2026-05-05 18:18 49.59571 4.55503 16852 ft 373 kts 269°
2026-05-05 18:19 49.59594 4.51511 16384 ft 370 kts 269°
2026-05-05 18:19 49.59611 4.47508 15926 ft 367 kts 269°
2026-05-05 18:19 49.59624 4.43607 15477 ft 364 kts 268°
2026-05-05 18:19 49.59634 4.39718 15035 ft 361 kts 268°
2026-05-05 18:20 49.59640 4.37166 14745 ft 359 kts 268°
2026-05-05 18:20 49.59648 4.33333 14303 ft 357 kts 268°
2026-05-05 18:20 49.59656 4.28287 13733 ft 354 kts 268°
2026-05-05 18:20 49.59660 4.25749 13571 ft 348 kts 268°
2026-05-05 18:21 49.59664 4.22067 13346 ft 341 kts 268°
2026-05-05 18:21 49.59666 4.18407 12995 ft 344 kts 268°
2026-05-05 18:21 49.59668 4.13459 12449 ft 351 kts 268°
2026-05-05 18:21 49.59669 4.10939 12297 ft 346 kts 268°
2026-05-05 18:22 49.59669 4.07270 12022 ft 339 kts 268°
2026-05-05 18:22 49.59669 4.03662 11787 ft 332 kts 268°
2026-05-05 18:22 49.59668 4.00134 11540 ft 328 kts 268°
2026-05-05 18:22 49.59629 3.96648 11251 ft 323 kts 262°
2026-05-05 18:23 49.59488 3.93223 11013 ft 317 kts 267°
2026-05-05 18:23 49.59510 3.89854 10791 ft 314 kts 269°
2026-05-05 18:23 49.59552 3.86500 10544 ft 312 kts 267°
2026-05-05 18:23 49.59560 3.83163 10312 ft 311 kts 269°
2026-05-05 18:24 49.59572 3.79842 10081 ft 310 kts 265°
2026-05-05 18:24 49.59424 3.76542 9830 ft 308 kts 268°
2026-05-05 18:24 49.59546 3.73252 9584 ft 307 kts 273°
2026-05-05 18:24 49.59602 3.69983 9321 ft 303 kts 269°
2026-05-05 18:25 49.59585 3.66747 9046 ft 300 kts 269°
2026-05-05 18:25 49.59575 3.64632 8880 ft 297 kts 266°
2026-05-05 18:25 49.59507 3.60421 8555 ft 293 kts 269°
2026-05-05 18:25 49.59511 3.57293 8297 ft 291 kts 270°
2026-05-05 18:26 49.59472 3.54176 8042 ft 290 kts 257°
2026-05-05 18:26 49.59008 3.51181 7871 ft 285 kts 256°
2026-05-05 18:26 49.58533 3.48221 7595 ft 285 kts 256°
2026-05-05 18:26 49.58063 3.45252 7342 ft 284 kts 256°
2026-05-05 18:27 49.57598 3.42307 7101 ft 283 kts 257°
2026-05-05 18:27 49.57136 3.39370 6846 ft 282 kts 257°
2026-05-05 18:27 49.56683 3.36477 6603 ft 280 kts 257°